EW1914 Weather Reports


time (UTC)temp
F
wind
direction
speed
knots
gust
knots
rain 1hr
in
rain 24hr
in
rain mn
in
humidity
%
barometer
mb
20260510113000 57 0.0 0.0 0.00 0.00 0.00 84 1016.8
20260510111958 57 0.0 0.0 0.00 0.00 0.00 83 1016.7
20260510110959 57 0.0 0.0 0.00 0.00 0.00 83 1016.5
20260510105959 57 0.0 0.0 0.00 0.00 0.00 83 1016.4
20260510104958 57 0.0 0.0 0.00 0.00 0.00 83 1016.5
20260510103957 58 0.0 0.0 0.00 0.00 0.00 82 1016.2
20260510102959 58 0.0 0.0 0.00 0.00 0.00 82 1016.0
20260510101958 58 0.0 0.0 0.00 0.00 0.00 82 1015.9
20260510100958 59 0.0 0.0 0.00 0.00 0.00 82 1015.6
20260510095958 59 0.0 0.0 0.00 0.00 0.00 81 1015.4
20260510094959 59 0.0 0.0 0.00 0.00 0.00 82 1015.2
20260510092959 59 0.0 0.0 0.00 0.00 0.00 80 1015.6
20260510091957 59 0.0 0.0 0.00 0.00 0.00 79 1015.5
20260510090957 59 0.0 0.0 0.00 0.00 0.00 77 1015.5
20260510084958 60 0.0 0.0 0.00 0.00 0.00 76 1015.3
20260510081958 61 0.0 0.0 0.00 0.00 0.00 72 1015.0
20260510080958 62 0.0 0.0 0.00 0.00 0.00 72 1015.0
20260510080002 62 0.0 0.0 0.00 0.00 0.00 72 1015.0
20260510075000 62 0.0 0.0 0.00 0.00 0.00 72 1014.9
20260510074001 63 0.0 0.0 0.00 0.00 0.00 70 1014.8
20260510073002 63 0.0 0.0 0.00 0.00 0.00 69 1014.8
20260510071000 64 0.0 0.0 0.00 0.00 0.00 68 1014.9
20260510070006 64 0.0 0.0 0.00 0.00 0.00 68 1014.8
20260510065001 64 0.0 0.0 0.00 0.00 0.00 68 1014.8
20260510064001 65 0.0 0.0 0.00 0.00 0.00 67 1014.7
20260510063002 65 0.0 0.0 0.00 0.00 0.00 65 1014.6
20260510062000 65 0.0 0.0 0.00 0.00 0.00 64 1014.6
20260510060005 66 0.0 0.0 0.00 0.00 0.00 63 1014.7
20260510054000 66 0.0 0.0 0.00 0.00 0.00 62 1014.6
20260510053001 66 0.0 0.0 0.00 0.00 0.00 61 1014.5
20260510051959 67 0.0 0.0 0.00 0.00 0.00 61 1014.5
20260510051000 67 0.0 0.0 0.00 0.00 0.00 60 1014.6
20260510050005 67 0.0 0.0 0.00 0.00 0.00 61 1014.6
20260510045000 68 0.0 0.0 0.00 0.00 0.00 60 1014.5
20260510044000 68 0.0 0.0 0.00 0.00 0.00 60 1014.4
20260510043002 68 0.0 0.0 0.00 0.00 0.00 60 1014.4
20260510042000 69 0.0 0.0 0.00 0.00 0.00 59 1014.2
20260510041000 69 0.0 0.0 0.00 0.00 0.00 58 1014.0
20260510040000 69 0.0 0.0 0.00 0.00 0.00 57 1013.9
20260510034000 70 0.0 0.0 0.00 0.00 0.00 55 1013.8
20260510033002 70 0.0 0.0 0.00 0.00 0.00 55 1013.6
20260510030959 71 0.0 0.0 0.00 0.00 0.00 53 1013.6
20260510030000 72 0.0 0.0 0.00 0.00 0.00 53 1013.6
20260510024958 72 0.0 0.0 0.00 0.00 0.00 52 1013.6
20260510023959 73 0.0 0.0 0.00 0.00 0.00 52 1013.6
20260510023000 73 0.0 0.0 0.00 0.00 0.00 51 1013.6
20260510022000 73 0.0 0.0 0.00 0.00 0.00 50 1013.6
20260510021000 74 0.0 0.0 0.00 0.00 0.00 49 1013.7
20260510020003 74 0.0 0.0 0.00 0.00 0.00 48 1013.7
20260510015001 75 0.0 0.0 0.00 0.00 0.00 46 1013.7
20260510013003 76 0.0 0.0 0.00 0.00 0.00 42 1013.9
20260510011959 76 0.0 0.0 0.00 0.00 0.00 40 1014.0
20260510011001 77 0.0 0.0 0.00 0.00 0.00 40 1014.1
20260510010001 77 0.0 0.0 0.00 0.00 0.00 43 1014.1
20260510004958 77 0.0 0.0 0.00 0.00 0.00 40 1014.0
20260510003959 78 0.0 0.0 0.00 0.00 0.00 39 1014.1
20260510003001 78 0.0 0.0 0.00 0.00 0.00 36 1014.0
20260510000959 79 0.0 0.0 0.00 0.00 0.00 32 1014.1
20260510000000 79 0.0 0.0 0.00 0.00 0.00 33 1014.2
20260509234000 79 0.0 0.0 0.00 0.00 0.00 31 1014.4
20260509233001 79 0.0 0.0 0.00 0.00 0.00 30 1014.4
20260509232000 79 0.0 0.0 0.00 0.00 0.00 33 1014.6
20260509230959 79 0.0 0.0 0.00 0.00 0.00 34 1014.8
20260509230001 79 0.0 0.0 0.00 0.00 0.00 35 1014.9
20260509224959 79 0.0 0.0 0.00 0.00 0.00 35 1015.2
20260509223958 79 0.0 0.0 0.00 0.00 0.00 39 1015.3
20260509223001 78 0.0 0.0 0.00 0.00 0.00 40 1015.4
20260509221958 78 0.0 0.0 0.00 0.00 0.00 37 1015.7
20260509220959 77 0.0 0.0 0.00 0.00 0.00 40 1015.9
20260509220012 77 0.0 0.0 0.00 0.00 0.00 41 1016.1
20260509213959 75 0.0 0.0 0.00 0.00 0.00 43 1016.2
20260509213001 75 0.0 0.0 0.00 0.00 0.00 42 1016.5
20260509211959 75 0.0 0.0 0.00 0.00 0.00 45 1016.6
20260509210958 74 0.0 0.0 0.00 0.00 0.00 46 1016.6
20260509210001 74 0.0 0.0 0.00 0.00 0.00 46 1016.6
20260509204959 73 0.0 0.0 0.00 0.00 0.00 47 1016.7
20260509204000 73 0.0 0.0 0.00 0.00 0.00 52 1016.7
20260509203001 72 0.0 0.0 0.00 0.00 0.00 54 1016.9
20260509202000 71 0.0 0.0 0.00 0.00 0.00 53 1017.1
20260509200959 71 0.0 0.0 0.00 0.00 0.00 56 1017.3
20260509200000 71 0.0 0.0 0.00 0.00 0.00 56 1017.5
20260509194959 70 0.0 0.0 0.00 0.00 0.00 58 1017.6
20260509193958 70 0.0 0.0 0.00 0.00 0.00 60 1017.7
20260509193000 69 0.0 0.0 0.00 0.00 0.00 60 1017.8
20260509191958 68 0.0 0.0 0.00 0.00 0.00 61 1018.0
20260509190959 68 0.0 0.0 0.00 0.00 0.00 64 1018.1
20260509190005 67 0.0 0.0 0.00 0.00 0.00 65 1018.3
20260509184959 66 0.0 0.0 0.00 0.00 0.00 67 1018.4
20260509183959 66 0.0 0.0 0.00 0.00 0.00 69 1018.6
20260509183001 65 0.0 0.0 0.00 0.00 0.00 69 1018.8
20260509181958 64 0.0 0.0 0.00 0.00 0.00 70 1018.7
20260509180958 63 0.0 0.0 0.00 0.00 0.00 72 1018.8
20260509180001 63 0.0 0.0 0.00 0.00 0.00 73 1018.8
20260509173958 62 0.0 0.0 0.00 0.00 0.00 76 1019.0
20260509172959 61 0.0 0.0 0.00 0.00 0.00 75 1019.2
20260509171959 60 0.0 0.0 0.00 0.00 0.00 77 1019.4
20260509170959 60 0.0 0.0 0.00 0.00 0.00 79 1019.7
20260509170000 59 0.0 0.0 0.00 0.00 0.00 80 1019.7
20260509164958 59 0.0 0.0 0.00 0.00 0.00 81 1019.8
20260509163959 58 0.0 0.0 0.00 0.00 0.00 82 1019.9
20260509161959 57 0.0 0.0 0.00 0.00 0.00 84 1020.2
20260509154958 55 0.0 0.0 0.00 0.00 0.00 86 1020.4
20260509153959 55 0.0 0.0 0.00 0.00 0.00 87 1020.4
20260509153000 55 0.0 0.0 0.00 0.00 0.00 88 1020.5
20260509151958 54 0.0 0.0 0.00 0.00 0.00 89 1020.6
20260509150959 54 0.0 0.0 0.00 0.00 0.00 90 1020.7
20260509144958 53 0.0 0.0 0.00 0.00 0.00 91 1020.9
20260509143959 52 0.0 0.0 0.00 0.00 0.00 92 1020.8
20260509143000 52 0.0 0.0 0.00 0.00 0.00 93 1020.7
20260509141958 51 0.0 0.0 0.00 0.00 0.00 92 1020.7
20260509140959 51 0.0 0.0 0.00 0.00 0.00 92 1020.6
20260509140000 50 0.0 0.0 0.00 0.00 0.00 91 1020.5
20260509134959 50 0.0 0.0 0.00 0.00 0.00 90 1020.5
20260509133008 50 0.0 0.0 0.00 0.00 0.00 90 1020.4
20260509132000 50 0.0 0.0 0.00 0.00 0.00 89 1020.5
20260509130959 50 0.0 0.0 0.00 0.00 0.00 89 1020.5
20260509130002 50 0.0 0.0 0.00 0.00 0.00 89 1020.4
20260509124957 50 0.0 0.0 0.00 0.00 0.00 88 1020.4
20260509123959 51 0.0 0.0 0.00 0.00 0.00 88 1020.6
20260509121958 51 0.0 0.0 0.00 0.00 0.00 88 1020.6
20260509120959 51 0.0 0.0 0.00 0.00 0.00 88 1020.5
20260509120004 51 0.0 0.0 0.00 0.00 0.00 88 1020.5
20260509114958 51 0.0 0.0 0.00 0.00 0.00 87 1020.6
20260509114000 52 0.0 0.0 0.00 0.00 0.00 87 1020.6